Regional Weather Roundup
Issued by NWS Midland/Odessa, TX

Skip options and go directly to product.
Home | Oldest Version | Previous Version | Current Version | All | Text Only | Save Text | Print | Product List | Glossary Off

Skip product version selection by date and time.   

084
ASUS44 KMAF 040710
RWRMAF
MIDLAND AREA WEATHER ROUNDUP
NATIONAL WEATHER SERVICE MIDLAND TX
100 AM CST WED MAR 04 2015

...IN SOUTHWEST TEXAS AND SOUTHEAST NEW MEXICO...

CITY           SKY/WX    TMP DP  RH WIND       PRES   REMARKS
ALPINE         CLOUDY    51  47  86 W5        29.95F
ANDREWS        LGT RAIN  50  48  93 SE3       29.86S
ARTESIA        MOCLDY    50  48  93 S9        29.84F
BIG SPRING     CLOUDY    54  49  82 CALM      29.86F
CARLSBAD       CLOUDY    56  41  57 S10       29.82F
DRYDEN           N/A     53  50  89 E6        29.82F
FORT STOCKTON  LGT RAIN  53  49  86 W8        29.85F
GUAD PASS      NOT AVBL
HOBBS          CLOUDY    50  50 100 S10       29.88R
MARFA          CLOUDY    52  45  76 NW7       29.91F
MIDLAND AIRPK  CLOUDY    51  47  87 CALM      29.85S
MIDLAND INTL   CLOUDY    50  47  89 CALM      29.85S
ODESSA         CLOUDY    49  45  86 CALM      29.85S
PECOS          CLOUDY    49  45  87 CALM      29.85F
PRESIDIO       CLOUDY    64  47  55 CALM      29.82S
SEMINOLE       CLOUDY    50  47  88 S7        29.87R
SNYDER         CLOUDY    50  47  91 CALM      29.85F
WINK           CLOUDY    52  46  80 N3        29.85R
$$
...OTHER STATIONS IN TEXAS...

CITY           SKY/WX    TMP DP  RH WIND       PRES   REMARKS
ABILENE        LGT RAIN  51  49  92 CALM      29.84F
AMARILLO       CLOUDY    36  32  85 NE15      29.89S WCI  27
AUSTIN         FOG       57  57 100 W3        29.85S VSB 3/4
BROWNSVILLE    CLOUDY    70  69  97 SE15      29.82F
CORPUS CHRISTI CLOUDY    68  67  96 SE18      29.82F FOG
DALLAS FTW     CLOUDY    51  51 100 CALM      29.85F FOG
DEL RIO        CLOUDY    58  53  84 N6        29.85S
EL PASO        MOCLDY    53  46  77 S10       29.85S
HOUSTON INT    CLOUDY    70  68  93 S5        29.88F
LUBBOCK        CLOUDY    52  45  77 S10       29.81F
SAN ANGELO     CLOUDY    54  51  90 CALM      29.84F
SAN ANTONIO    DRZL/FOG  59  58  96 CALM      29.84F VSB 1/16
WACO           FOG       53  52  96 SE9       29.84F VSB 1/2
WICHITA FALLS  NOT AVBL
$$
...OTHER LOCATIONS IN NEW MEXICO...

CITY           SKY/WX    TMP DP  RH WIND       PRES   REMARKS
ALAMAGORDO     PTCLDY    48  43  81 S10       29.86S
ALBUQUERQUE    PTCLDY    41  27  57 N8        29.88F WCI  36
CANNON AFB     PTCLDY    46  42  85 W7        29.81S
CLOVIS         MOCLDY    45  41  87 W7        29.80F
HOLLOMAN AFB   PTCLDY    49  43  81 SW10      29.83F
ROSWELL        MOCLDY    46  40  79 S3        29.83S
RUIDOSO        MOCLDY    37  30  75 W8        29.88S WCI  31
SANTA FE       CLEAR     30  20  66 N5        29.86S WCI  25
TRUTH OR CONSE CLEAR     40  27  59 W8        29.84F WCI  34
TUCUMCARI      CLOUDY    35  32  88 NE15      29.87R WCI  25
$$

USA.gov is the U.S. government's official web portal to all federal, state and local government web resources and services.